Home   Weather   Columbus Square   Past weeks
Flag for USA

Past Weather in Columbus Square, Missouri, USA — Yesterday and Last 2 Weeks

Now
78 °F

Partly sunny.


Feels Like: 80 °F
Forecast: 86 / 72 °F
Wind: No wind

Location: Lambert-St. Louis International Airport
Current Time: Aug 11, 2020 at 12:15:47 pm
Latest Report: Aug 11, 2020 at 10:51 am
Visibility: 10 mi
Pressure29.99 "Hg
Humidity: 74%
Dew Point: 69 °F
Location of Columbus SquareLocation

Past Weather in Columbus Square — Graph

°F

Columbus Square Temperature Yesterday

Maximum temperature yesterday: 96 °F (at 1:51 pm)
Minimum temperature yesterday: 70 °F (at 6:20 pm)
Average temperature yesterday: 80 °F

High & Low Weather Summary for the Past Weeks

 TemperatureHumidityPressure
High96 °F (Aug 10, 1:51 pm)94% (Jul 29, 3:31 pm)30.15 "Hg (Jul 29, 3:31 pm)
Low59 °F (Aug 5, 3:51 am)34% (Jul 28, 2:51 pm)29.74 "Hg (Jul 30, 3:51 pm)
Average75 °F75%29.97 "Hg
* Reported Jul 27 10:18 am — Aug 11 10:51 am, Columbus Square. Weather by CustomWeather, © 2020

Note: Actual official high and low records may vary slightly from our data, if they occured in-between our weather recording intervals... More about our weather records

Columbus Square Weather History for the Previous 24 Hours

Scroll right to see more
 ConditionsComfort  
Time TempWeatherWind HumidityBarometerVisibility
10:51 am
Tue, Aug 11
78 °FPartly sunny.No wind74%29.99 "Hg10 mi
9:51 am75 °FPartly sunny.No wind82%30.00 "Hg10 mi
8:51 am75 °FBroken clouds.No wind82%29.99 "Hg10 mi
8:25 am74 °FBroken clouds.3 mph85%30.02 "Hg10 mi
7:51 am73 °FMostly cloudy.6 mph84%29.99 "Hg10 mi
7:28 am73 °FMostly cloudy.5 mph84%30.00 "Hg10 mi
6:51 am71 °FFog.5 mph87%29.97 "Hg6 mi
6:34 am71 °FFog.6 mph87%29.99 "Hg6 mi
5:51 am70 °FLow clouds.5 mph93%29.95 "Hg8 mi
4:59 am70 °FPassing clouds.3 mph90%29.97 "Hg10 mi
4:34 am71 °FPassing clouds.3 mph87%29.98 "Hg10 mi
3:51 am71 °FPassing clouds.No wind87%29.94 "Hg10 mi
3:26 am71 °FPartly cloudy.No wind87%29.99 "Hg10 mi
2:51 am72 °FLow clouds.3 mph87%29.94 "Hg10 mi
2:38 am71 °FLow clouds.5 mph90%29.99 "Hg10 mi
1:51 am72 °FOvercast.6 mph87%29.94 "Hg10 mi
1:36 am72 °FOvercast.No wind84%29.98 "Hg10 mi
1:16 am72 °FOvercast.No wind87%29.99 "Hg10 mi
12:51 am72 °FPassing clouds.No wind87%29.94 "Hg10 mi
11:51 pm
Mon, Aug 10
71 °FLow clouds.6 mph90%29.92 "Hg10 mi
10:51 pm71 °FLow clouds.7 mph87%29.90 "Hg10 mi
10:06 pm71 °FMostly cloudy.8 mph90%29.94 "Hg10 mi
9:51 pm71 °FPartly cloudy.8 mph90%29.90 "Hg10 mi
9:19 pm71 °FPassing clouds.15 mph90%29.93 "Hg10 mi
8:51 pm71 °FPartly cloudy.14 mph87%29.88 "Hg10 mi
8:02 pm70 °FLight rain. Passing clouds.10 mph90%29.98 "Hg10 mi
6:51 pm70 °FThunderstorms. More clouds than sun.12 mph90%30.01 "Hg7 mi
6:40 pm70 °FThunderstorms. Fog.12 mph90%30.07 "Hg4 mi
6:20 pm70 °FStrong thunderstorms. Fog.20 mph90%30.08 "Hg2 mi
6:05 pm71 °FStrong thunderstorms. Fog.30 mph87%29.99 "Hg1 mi
6:02 pm72 °FStrong thunderstorms. Cloudy.29 mph84%29.99 "Hg2 mi
4:51 pm93 °FPartly sunny.9 mph54%29.87 "Hg10 mi
3:51 pm95 °FBroken clouds.10 mph56%29.85 "Hg10 mi
2:51 pm94 °FBroken clouds.12 mph52%29.90 "Hg10 mi
1:51 pm96 °FScattered clouds.8 mph47%29.90 "Hg10 mi
12:51 pm95 °FPassing clouds.8 mph51%29.92 "Hg10 mi
Weather by CustomWeather, © 2020

See weather overview